Regional Weather Roundup
Issued by NWS

Home | Current Version | Previous Version | Graphics & Text | Print | Product List | Glossary On
Versions: 1 2 3 4 5 6 7 8 9 10 11 12 13 14 15 16 17 18 19 20 21 22 23 24 25 26 27 28 29 30 31 32 33 34 35 36 37 38 39 40 41 42 43 44 45 46 47 48 49 50
000
ASUS43 KLSX 230807
RWRMO

WEATHER SUMMARY FOR MISSOURI
NATIONAL WEATHER SERVICE SPRINGFIELD MO
300 AM CDT TUE SEP 23 2014

NOTE: "FAIR" INDICATES FEW OR NO CLOUDS BELOW 12,000 FEET WITH NO
       SIGNIFICANT WEATHER AND/OR OBSTRUCTIONS TO VISIBILITY.
       CURRENT SKY AND/OR WEATHER CONDITIONS ARE NOT AVAILABLE FOR
       CHILLICOTHE AND FARMINGTON.

MOZ001>031-035>038-043-044-053-054-230900-
...NORTHERN AND WESTERN MISSOURI...

CITY           SKY/WX    TMP DP  RH WIND       PRES   REMARKS
KANSAS CTY INT MOCLDY    55  51  86 S5        30.22F
KANSAS C DTWN  PTCLDY    60  54  80 CALM      30.21F
LEE`S SUMMIT   PTCLDY    59  50  72 S3        30.23F
ST JOSEPH      MOCLDY    50  48  93 CALM      30.21F
CHILLICOTHE      N/A     52  50  93 CALM      30.25S
KIRKSVILLE     MOCLDY    51  32  48 SE5       30.26S

$$
MOZ066>068-077>081-088>096-101>105-230900-
...SOUTHWEST MISSOURI...

CITY           SKY/WX    TMP DP  RH WIND       PRES   REMARKS
SPRINGFIELD    PTCLDY    54  48  80 SE7       30.24S
JOPLIN         CLEAR     53  50  89 E3        30.23S

$$
MOZ032>034-039>042-045>050-055>058-069>072-230900-
...CENTRAL MISSOURI...

CITY           SKY/WX    TMP DP  RH WIND       PRES   REMARKS
COLUMBIA       PTCLDY    56  48  74 SE7       30.24F
JEFFERSON CITY PTCLDY    49  47  93 CALM      30.25F
ROLLA          PTCLDY    54  46  74 SE8       30.24F
SEDALIA        CLEAR     54  49  83 SE3       30.24F
WHITEMAN AFB   CLEAR     52  48  87 SE3       30.22F
OSAGE BEACH    PTCLDY    52  46  82 SE5       30.25S

$$
MOZ051-052-059>065-230900-
...EAST CENTRAL MISSOURI...

CITY           SKY/WX    TMP DP  RH WIND       PRES   REMARKS
ST LOUIS INTL  PTCLDY    53  48  83 CALM      30.27S
SPIRIT OF STL  CLEAR     48  47  96 CALM      30.26S
ST CHARLES     CLEAR     47  46  97 E3        30.26S

$$
MOZ072>076-082>087-097>100-106>115-230900-
...SOUTH CENTRAL AND SOUTHEAST MISSOURI...

CITY           SKY/WX    TMP DP  RH WIND       PRES   REMARKS
CAPE GIRARDEAU FOG       42  41  96 CALM      30.26S VSB 1/4
FARMINGTON     CLEAR     46  45  93 CALM      30.28S
POPLAR BLUFF   CLEAR     48  45  89 N3        30.25R
WEST PLAINS    CLEAR     48  45  89 CALM      30.27S

$$



USA.gov is the U.S. government's official web portal to all federal, state and local government web resources and services.